Regional Weather Roundup
Issued by NWS Kansas City/Pleasant Hill, MO

Home | Current Version | Previous Version | Graphics & Text | Print | Product List | Glossary Off
Versions: 1 2 3 4 5 6 7 8 9 10 11 12 13 14 15 16 17 18 19 20 21 22 23 24 25 26 27 28 29 30 31 32 33 34 35 36 37 38 39 40 41 42 43 44 45 46 47 48 49 50

000
ASUS43 KEAX 271111
RWREAX

WEATHER ROUNDUP FOR EASTERN KANSAS AND NORTHWEST MISSOURI
NATIONAL WEATHER SERVICE KANSAS CITY/PLEASANT HILL MO
500 AM CST THU NOV 27 2014

KSZ040-057-103>105-MOZ028-029-037-043-271200-
...KANSAS CITY METROPOLITAN AREA...

CITY           SKY/WX    TMP DP  RH WIND       PRES   REMARKS
K.C. INTL      CLOUDY    25  20  81 N8        30.47S WCI  16
K.C. DOWNTOWN  CLOUDY    28  20  71 N9        30.48F WCI  19
LEES SUMMIT    CLOUDY    26  20  77 N9        30.47S WCI  17
OLATHE - IXD   CLEAR     21  18  88 N7        30.47S WCI  12
OLATHE - OJC   PTCLDY    25  20  81 N8        30.45F WCI  16
LAWRENCE       CLOUDY    23  18  81 N6        30.50R WCI  16

$$

MOZ001>008-011>017-020>025-030>033-038>040-044>046-053-054-271200-
...NORTHERN AND CENTRAL MISSOURI...

CITY           SKY/WX    TMP DP  RH WIND       PRES   REMARKS
ST. JOSEPH     CLOUDY    24  19  81 N9        30.50S WCI  14
MOSBY          CLOUDY    28  23  80 N8        30.48S WCI  20
WARRENSBURG    CLOUDY    28  23  80 NW6       30.47S WCI  22
WHITEMAN AFB   CLOUDY    28  22  79 N9        30.47R WCI  19
CLINTON        CLOUDY    32  27  80 NW10      30.48R WCI  24
SEDALIA        CLOUDY    29  24  82 NW13G23   30.47R WCI  19
WARSAW         NOT AVBL
MARSHALL       CLOUDY    30  25  80 NW12      30.48R WCI  21
CHILLICOTHE      N/A     27  21  78 NW6       30.49R WCI  20
MOBERLY        CLOUDY    28  23  80 NW13      30.44R WCI  18
KIRKSVILLE     CLOUDY    26  22  84 NW9       30.43R WCI  17

$$

MOZ041-047>049-056>058-063>065-088>090-097-271200-
...EASTERN AND SOUTHERN MISSOURI...

CITY           SKY/WX    TMP DP  RH WIND       PRES   REMARKS
ST. LOUIS INTL CLOUDY    30  24  78 NW12      30.39R WCI  20
SPIRIT OF STL  CLOUDY    30  25  81 NW8       30.40R WCI  22
COLUMBIA       CLOUDY    31  27  85 NW7       30.41S WCI  24
JEFFERSON CITY CLOUDY    32  25  75 NW8       30.43R WCI  25
MEXICO         CLOUDY    32  32 100 NW12G21   30.41R WCI  23
ROLLA          CLOUDY    30  27  88 NW10      30.36R WCI  21
LEBANON        CLOUDY    30  27  86 NW7       30.41R WCI  23
OSAGE BEACH    CLOUDY    32  25  74 NW5       30.42R WCI  27
SPRINGFIELD    CLOUDY    30  23  75 NW16      30.44R WCI  19
BRANSON        PTCLDY    30  23  74 NW12G18   30.44R WCI  21
NEVADA         CLEAR     25  21  86 N6        30.48R WCI  18
JOPLIN         FAIR      25  20  81 CALM      30.48R
WEST PLAINS    CLOUDY    31  26  82 NW8       30.38R WCI  23

$$

IAZ060-094-KSZ022-034>040-054-083-096-NEZ052-066-093-271200-
...KANSAS...SOUTHEAST NEBRASKA AND IOWA...

CITY           SKY/WX    TMP DP  RH WIND       PRES   REMARKS
TOPEKA         CLOUDY    25  20  81 N8        30.50R WCI  16
MANHATTAN      MOCLDY    19  15  84 NE3       30.50R
EMPORIA        CLEAR     18  16  92 NW6       30.48R WCI  10
CHANUTE        CLEAR     23  19  85 N5        30.47F WCI  17
WICHITA        PTCLDY    25  17  72 NW5       30.49S WCI  19
OMAHA          MOCLDY    17  12  80 N13       30.52S WCI   4
LINCOLN        CLEAR     13   8  81 NE6       30.49F WCI   4
FALLS CITY     CLOUDY    22  16  78 N6        30.49S WCI  14
LAMONI         CLOUDY    20  16  84 N10       30.45R WCI   9
DES MOINES     PTCLDY    11   3  70 NW15      30.48R WCI  -5

$$




USA.gov is the U.S. government's official web portal to all federal, state and local government web resources and services.